Time,TemperatureF,DewpointF,PressureIn,WindDirection,WindDirectionDegrees,WindSpeedMPH,WindSpeedGustMPH,Humidity,HourlyPrecipIn,Conditions,Clouds,dailyrainin,SoftwareType,DateUTC
2013-07-12 00:01:00,56.0,40.0,29.83,NNE,17,0.0,-999.0,55,-99.99,,,-99.99,,2013-07-12 06:01:00,
2013-07-12 00:11:00,55.0,39.0,29.83,NNE,17,0.0,-999.0,55,-99.99,,,-99.99,,2013-07-12 06:11:00,
2013-07-12 00:22:00,55.0,39.0,29.83,NNE,17,0.0,-999.0,55,-99.99,,,-99.99,,2013-07-12 06:22:00,
2013-07-12 00:33:00,54.0,39.0,29.83,NNE,17,0.0,-999.0,57,-99.99,,,-99.99,,2013-07-12 06:33:00,
2013-07-12 00:52:00,53.0,39.0,29.84,NNE,17,0.0,-999.0,58,-99.99,,,-99.99,,2013-07-12 06:52:00,
2013-07-12 01:02:00,54.0,40.0,29.83,NNE,17,0.0,-999.0,58,-99.99,,,-99.99,,2013-07-12 07:02:00,
2013-07-12 01:12:00,55.0,40.0,29.83,NNE,17,0.0,-999.0,56,-99.99,,,-99.99,,2013-07-12 07:12:00,
2013-07-12 01:22:00,55.0,40.0,29.83,NNE,17,0.0,-999.0,56,-99.99,,,-99.99,,2013-07-12 07:22:00,
2013-07-12 01:32:00,55.0,40.0,29.83,NNE,17,0.0,-999.0,56,-99.99,,,-99.99,,2013-07-12 07:32:00,
2013-07-12 01:43:00,54.0,39.0,29.82,NNE,17,0.0,-999.0,57,-99.99,,,-99.99,,2013-07-12 07:43:00,
2013-07-12 01:52:00,54.0,39.0,29.82,NNE,17,0.0,-999.0,57,-99.99,,,-99.99,,2013-07-12 07:52:00,
2013-07-12 02:01:00,53.0,39.0,29.81,NNE,17,0.0,-999.0,58,-99.99,,,-99.99,,2013-07-12 08:01:00,
2013-07-12 02:11:00,52.0,39.0,29.81,NNE,17,0.0,-999.0,60,-99.99,,,-99.99,,2013-07-12 08:11:00,
2013-07-12 02:21:00,52.0,39.0,29.81,NNE,17,0.0,-999.0,60,-99.99,,,-99.99,,2013-07-12 08:21:00,
2013-07-12 02:32:00,52.0,39.0,29.80,NNE,17,0.0,-999.0,62,-99.99,,,-99.99,,2013-07-12 08:32:00,
2013-07-12 02:42:00,51.0,38.0,29.79,NNE,17,0.0,-999.0,62,-99.99,,,-99.99,,2013-07-12 08:42:00,
2013-07-12 02:53:00,51.0,38.0,29.79,NNE,17,0.0,-999.0,62,-99.99,,,-99.99,,2013-07-12 08:53:00,
2013-07-12 03:02:00,52.0,39.0,29.78,NNE,17,0.0,-999.0,61,-99.99,,,-99.99,,2013-07-12 09:02:00,
2013-07-12 03:12:00,52.0,39.0,29.78,NNE,17,0.0,-999.0,61,-99.99,,,-99.99,,2013-07-12 09:12:00,
2013-07-12 03:22:00,52.0,39.0,29.78,NNE,17,0.0,-999.0,61,-99.99,,,-99.99,,2013-07-12 09:22:00,
2013-07-12 03:32:00,52.0,39.0,29.77,NNE,17,0.0,-999.0,61,-99.99,,,-99.99,,2013-07-12 09:32:00,
2013-07-12 03:42:00,51.0,38.0,29.78,NNE,17,0.0,-999.0,62,-99.99,,,-99.99,,2013-07-12 09:42:00,
2013-07-12 03:52:00,51.0,38.0,29.78,NNE,17,0.0,-999.0,62,-99.99,,,-99.99,,2013-07-12 09:52:00,
2013-07-12 04:01:00,50.0,38.0,29.78,NNE,17,0.0,-999.0,63,-99.99,,,-99.99,,2013-07-12 10:01:00,
2013-07-12 04:11:00,49.0,38.0,29.77,NNE,17,0.0,-999.0,65,-99.99,,,-99.99,,2013-07-12 10:11:00,
2013-07-12 04:22:00,49.0,38.0,29.77,NNE,17,0.0,-999.0,65,-99.99,,,-99.99,,2013-07-12 10:22:00,
2013-07-12 04:33:00,48.0,38.0,29.77,NNE,17,0.0,-999.0,67,-99.99,,,-99.99,,2013-07-12 10:33:00,
2013-07-12 04:42:00,47.0,37.0,29.76,NNE,17,0.0,-999.0,68,-99.99,,,-99.99,,2013-07-12 10:42:00,
2013-07-12 04:52:00,47.0,37.0,29.76,NNE,17,0.0,-999.0,68,-99.99,,,-99.99,,2013-07-12 10:52:00,
2013-07-12 05:02:00,48.0,38.0,29.76,NNE,17,0.0,-999.0,68,-99.99,,,-99.99,,2013-07-12 11:02:00,
2013-07-12 05:11:00,49.0,39.0,29.77,NNE,17,0.0,-999.0,68,-99.99,,,-99.99,,2013-07-12 11:11:00,
2013-07-12 05:22:00,49.0,39.0,29.77,NNE,17,0.0,-999.0,68,-99.99,,,-99.99,,2013-07-12 11:22:00,
2013-07-12 05:32:00,49.0,39.0,29.77,NNE,17,0.0,-999.0,68,-99.99,,,-99.99,,2013-07-12 11:32:00,
2013-07-12 05:43:00,50.0,39.0,29.77,NNE,17,0.0,-999.0,67,-99.99,,,-99.99,,2013-07-12 11:43:00,
2013-07-12 05:52:00,50.0,39.0,29.77,NNE,17,0.0,-999.0,67,-99.99,,,-99.99,,2013-07-12 11:52:00,
2013-07-12 06:01:00,50.0,39.0,29.77,NNE,17,0.0,-999.0,66,-99.99,,,-99.99,,2013-07-12 12:01:00,
2013-07-12 06:11:00,49.0,38.0,29.77,NNE,17,0.0,-999.0,66,-99.99,,,-99.99,,2013-07-12 12:11:00,
2013-07-12 06:22:00,49.0,38.0,29.77,NNE,17,0.0,-999.0,66,-99.99,,,-99.99,,2013-07-12 12:22:00,
2013-07-12 06:32:00,49.0,39.0,29.77,NNE,17,0.0,-999.0,67,-99.99,,,-99.99,,2013-07-12 12:32:00,
2013-07-12 06:43:00,49.0,39.0,29.77,NNE,17,0.0,-999.0,68,-99.99,,,-99.99,,2013-07-12 12:43:00,
2013-07-12 06:52:00,49.0,39.0,29.77,NNE,17,0.0,-999.0,68,-99.99,,,-99.99,,2013-07-12 12:52:00,
2013-07-12 07:01:00,49.0,39.0,29.77,NNE,17,0.0,-999.0,69,-99.99,,,-99.99,,2013-07-12 13:01:00,
2013-07-12 07:12:00,49.0,40.0,29.77,NNE,17,0.0,-999.0,70,-99.99,,,-99.99,,2013-07-12 13:12:00,
2013-07-12 07:22:00,49.0,40.0,29.77,NNE,17,0.0,-999.0,70,-99.99,,,-99.99,,2013-07-12 13:22:00,
2013-07-12 07:32:00,49.0,40.0,29.76,NNE,17,0.0,-999.0,70,-99.99,,,-99.99,,2013-07-12 13:32:00,
2013-07-12 07:43:00,50.0,41.0,29.75,NNE,17,0.0,-999.0,71,-99.99,,,-99.99,,2013-07-12 13:43:00,
2013-07-12 07:53:00,50.0,41.0,29.75,NNE,17,0.0,-999.0,71,-99.99,,,-99.99,,2013-07-12 13:53:00,
2013-07-12 08:02:00,53.0,42.0,29.75,NW,308,0.0,-999.0,66,-99.99,,,-99.99,,2013-07-12 14:02:00,
2013-07-12 08:22:00,56.0,42.0,29.75,West,276,0.0,-999.0,59,-99.99,,,-99.99,,2013-07-12 14:22:00,
2013-07-12 08:32:00,57.0,41.0,29.74,West,273,0.0,-999.0,56,-99.99,,,-99.99,,2013-07-12 14:32:00,
2013-07-12 08:43:00,62.0,42.0,29.74,East,99,2.0,-999.0,48,-99.99,,,-99.99,,2013-07-12 14:43:00,
2013-07-12 08:53:00,62.0,42.0,29.74,East,99,2.0,-999.0,48,-99.99,,,-99.99,,2013-07-12 14:53:00,
2013-07-12 09:01:00,64.0,42.0,29.73,East,94,1.0,-999.0,45,-99.99,,,-99.99,,2013-07-12 15:01:00,
2013-07-12 09:11:00,65.0,41.0,29.73,East,97,1.0,-999.0,42,-99.99,,,-99.99,,2013-07-12 15:11:00,
2013-07-12 09:22:00,65.0,41.0,29.73,East,97,1.0,-999.0,42,-99.99,,,-99.99,,2013-07-12 15:22:00,
2013-07-12 09:33:00,66.0,43.0,29.73,WNW,290,0.0,-999.0,43,-99.99,,,-99.99,,2013-07-12 15:33:00,
2013-07-12 09:43:00,68.0,42.0,29.73,SSW,211,1.0,-999.0,39,-99.99,,,-99.99,,2013-07-12 15:43:00,
2013-07-12 09:52:00,68.0,42.0,29.73,SSW,211,1.0,-999.0,39,-99.99,,,-99.99,,2013-07-12 15:52:00,
2013-07-12 10:01:00,69.0,42.0,29.73,SSW,206,1.0,-999.0,38,-99.99,,,-99.99,,2013-07-12 16:01:00,
2013-07-12 10:11:00,69.0,41.0,29.73,ENE,67,1.0,-999.0,36,-99.99,,,-99.99,,2013-07-12 16:11:00,
2013-07-12 10:22:00,69.0,41.0,29.73,ENE,67,1.0,-999.0,36,-99.99,,,-99.99,,2013-07-12 16:22:00,
2013-07-12 10:32:00,69.0,41.0,29.73,East,82,1.0,-999.0,36,-99.99,,,-99.99,,2013-07-12 16:32:00,
2013-07-12 10:42:00,68.0,40.0,29.72,SE,125,1.0,-999.0,36,-99.99,,,-99.99,,2013-07-12 16:42:00,
2013-07-12 10:56:00,68.0,40.0,29.72,SE,125,1.0,-999.0,36,-99.99,,,-99.99,,2013-07-12 16:56:00,
2013-07-12 11:05:00,68.0,41.0,29.72,WSW,249,1.0,-999.0,37,-99.99,,,-99.99,,2013-07-12 17:05:00,
2013-07-12 11:12:00,68.0,41.0,29.72,ENE,74,0.0,-999.0,37,-99.99,,,-99.99,,2013-07-12 17:12:00,
2013-07-12 11:23:00,68.0,41.0,29.72,ENE,74,0.0,-999.0,37,-99.99,,,-99.99,,2013-07-12 17:23:00,
2013-07-12 11:35:00,67.0,41.0,29.73,ENE,68,0.0,-999.0,38,-99.99,,,-99.99,,2013-07-12 17:35:00,
2013-07-12 11:44:00,66.0,40.0,29.72,ENE,57,1.0,-999.0,39,-99.99,,,-99.99,,2013-07-12 17:44:00,
2013-07-12 11:53:00,66.0,40.0,29.72,ENE,57,1.0,-999.0,39,-99.99,,,-99.99,,2013-07-12 17:53:00,
2013-07-12 12:05:00,68.0,42.0,29.72,SW,218,1.0,-999.0,39,-99.99,,,-99.99,,2013-07-12 18:05:00,
2013-07-12 12:13:00,68.0,42.0,29.72,WNW,288,0.0,-999.0,39,-99.99,,,-99.99,,2013-07-12 18:13:00,
2013-07-12 12:25:00,68.0,42.0,29.72,WNW,288,0.0,-999.0,39,-99.99,,,-99.99,,2013-07-12 18:25:00,
2013-07-12 12:34:00,67.0,45.0,29.71,WNW,288,0.0,-999.0,45,-99.99,,,-99.99,,2013-07-12 18:34:00,
2013-07-12 12:46:00,66.0,47.0,29.72,NNW,340,0.0,-999.0,51,-99.99,,,-99.99,,2013-07-12 18:46:00,
2013-07-12 14:33:00,58.0,50.0,29.70,South,190,1.0,-999.0,76,-99.99,,,-99.99,,2013-07-12 20:33:00,
2013-07-12 14:43:00,59.0,52.0,29.69,South,190,0.0,-999.0,77,-99.99,,,-99.99,,2013-07-12 20:43:00,
2013-07-12 14:54:00,59.0,52.0,29.69,South,190,0.0,-999.0,77,-99.99,,,-99.99,,2013-07-12 20:54:00,
2013-07-12 15:02:00,61.0,51.0,29.69,WSW,252,0.0,-999.0,70,-99.99,,,-99.99,,2013-07-12 21:02:00,
2013-07-12 15:14:00,61.0,51.0,29.71,WSW,251,0.0,-999.0,69,-99.99,,,-99.99,,2013-07-12 21:14:00,
2013-07-12 15:24:00,61.0,51.0,29.71,WSW,251,0.0,-999.0,69,-99.99,,,-99.99,,2013-07-12 21:24:00,
2013-07-12 15:34:00,60.0,47.0,29.73,South,188,0.0,-999.0,61,-99.99,,,-99.99,,2013-07-12 21:34:00,
2013-07-12 15:44:00,57.0,50.0,29.74,SE,140,0.0,-999.0,76,-99.99,,,-99.99,,2013-07-12 21:44:00,
2013-07-12 15:54:00,57.0,50.0,29.74,SE,140,0.0,-999.0,76,-99.99,,,-99.99,,2013-07-12 21:54:00,
2013-07-12 16:14:00,54.0,49.0,29.75,SE,140,0.0,-999.0,82,-99.99,,,-99.99,,2013-07-12 22:14:00,
2013-07-12 16:22:00,54.0,49.0,29.75,SE,140,0.0,-999.0,82,-99.99,,,-99.99,,2013-07-12 22:22:00,
2013-07-12 16:33:00,55.0,50.0,29.75,South,183,0.0,-999.0,83,-99.99,,,-99.99,,2013-07-12 22:33:00,
2013-07-12 16:44:00,56.0,50.0,29.75,South,187,0.0,-999.0,79,-99.99,,,-99.99,,2013-07-12 22:44:00,
2013-07-12 16:53:00,56.0,50.0,29.75,South,187,0.0,-999.0,79,-99.99,,,-99.99,,2013-07-12 22:53:00,
2013-07-12 17:03:00,57.0,49.0,29.75,SSW,196,1.0,-999.0,75,-99.99,,,-99.99,,2013-07-12 23:03:00,
2013-07-12 17:12:00,58.0,48.0,29.75,SSW,198,0.0,-999.0,69,-99.99,,,-99.99,,2013-07-12 23:12:00,
2013-07-12 17:23:00,58.0,48.0,29.75,SSW,198,0.0,-999.0,69,-99.99,,,-99.99,,2013-07-12 23:23:00,
2013-07-12 17:33:00,58.0,48.0,29.75,SSW,198,0.0,-999.0,69,-99.99,,,-99.99,,2013-07-12 23:33:00,
2013-07-12 17:42:00,59.0,49.0,29.75,SSW,198,0.0,-999.0,69,-99.99,,,-99.99,,2013-07-12 23:42:00,
2013-07-12 17:53:00,59.0,49.0,29.75,SSW,198,0.0,-999.0,69,-99.99,,,-99.99,,2013-07-12 23:53:00,
2013-07-12 18:15:00,59.0,48.0,29.75,SSW,199,0.0,-999.0,66,-99.99,,,-99.99,,2013-07-13 00:15:00,
2013-07-12 18:24:00,59.0,48.0,29.75,SSW,199,0.0,-999.0,66,-99.99,,,-99.99,,2013-07-13 00:24:00,
2013-07-12 18:33:00,59.0,47.0,29.77,SSW,199,0.0,-999.0,64,-99.99,,,-99.99,,2013-07-13 00:33:00,
2013-07-12 18:45:00,59.0,47.0,29.77,SSW,199,0.0,-999.0,64,-99.99,,,-99.99,,2013-07-13 00:45:00,
2013-07-12 18:54:00,61.0,45.0,29.78,ENE,63,0.0,-999.0,56,-99.99,,,-99.99,,2013-07-13 00:54:00,
2013-07-12 19:12:00,61.0,45.0,29.80,ENE,63,0.0,-999.0,56,-99.99,,,-99.99,,2013-07-13 01:12:00,
2013-07-12 19:24:00,61.0,45.0,29.80,ENE,63,0.0,-999.0,56,-99.99,,,-99.99,,2013-07-13 01:24:00,
2013-07-12 19:35:00,59.0,48.0,29.81,ESE,105,1.0,-999.0,68,-99.99,,,-99.99,,2013-07-13 01:35:00,
2013-07-12 19:46:00,59.0,48.0,29.81,ESE,105,1.0,-999.0,68,-99.99,,,-99.99,,2013-07-13 01:46:00,
2013-07-12 19:54:00,57.0,48.0,29.83,SE,142,1.0,-999.0,73,-99.99,,,-99.99,,2013-07-13 01:54:00,
2013-07-12 20:04:00,54.0,47.0,29.83,NNE,21,0.0,-999.0,78,-99.99,,,-99.99,,2013-07-13 02:04:00,
2013-07-12 20:14:00,54.0,47.0,29.83,NNE,21,0.0,-999.0,78,-99.99,,,-99.99,,2013-07-13 02:14:00,
2013-07-12 20:23:00,54.0,47.0,29.83,NNE,21,0.0,-999.0,78,-99.99,,,-99.99,,2013-07-13 02:23:00,
2013-07-12 20:35:00,54.0,48.0,29.82,NNE,21,0.0,-999.0,80,-99.99,,,-99.99,,2013-07-13 02:35:00,
2013-07-12 20:45:00,53.0,47.0,29.81,NNE,21,0.0,-999.0,81,-99.99,,,-99.99,,2013-07-13 02:45:00,
2013-07-12 20:55:00,53.0,47.0,29.81,NNE,21,0.0,-999.0,81,-99.99,,,-99.99,,2013-07-13 02:55:00,
2013-07-12 21:04:00,53.0,47.0,29.83,NNE,21,0.0,-999.0,81,-99.99,,,-99.99,,2013-07-13 03:04:00,
2013-07-12 21:12:00,53.0,47.0,29.83,NNE,21,0.0,-999.0,81,-99.99,,,-99.99,,2013-07-13 03:12:00,
2013-07-12 21:25:00,53.0,47.0,29.83,NNE,21,0.0,-999.0,81,-99.99,,,-99.99,,2013-07-13 03:25:00,
2013-07-12 21:35:00,51.0,46.0,29.83,NNE,21,0.0,-999.0,84,-99.99,,,-99.99,,2013-07-13 03:35:00,
2013-07-12 21:44:00,51.0,47.0,29.83,NNE,21,0.0,-999.0,85,-99.99,,,-99.99,,2013-07-13 03:44:00,
2013-07-12 21:57:00,51.0,47.0,29.83,NNE,21,0.0,-999.0,85,-99.99,,,-99.99,,2013-07-13 03:57:00,
2013-07-12 22:01:00,51.0,47.0,29.83,NNE,21,0.0,-999.0,85,-99.99,,,-99.99,,2013-07-13 04:01:00,
2013-07-12 22:11:00,51.0,47.0,29.83,NNE,21,0.0,-999.0,85,-99.99,,,-99.99,,2013-07-13 04:11:00,
2013-07-12 22:22:00,51.0,47.0,29.83,NNE,21,0.0,-999.0,85,-99.99,,,-99.99,,2013-07-13 04:22:00,
2013-07-12 22:32:00,50.0,46.0,29.84,NNE,21,0.0,-999.0,85,-99.99,,,-99.99,,2013-07-13 04:32:00,
2013-07-12 22:43:00,50.0,46.0,29.84,NNE,21,0.0,-999.0,85,-99.99,,,-99.99,,2013-07-13 04:43:00,
2013-07-12 22:52:00,50.0,46.0,29.84,NNE,21,0.0,-999.0,85,-99.99,,,-99.99,,2013-07-13 04:52:00,
2013-07-12 23:01:00,50.0,46.0,29.85,NNE,21,0.0,-999.0,85,-99.99,,,-99.99,,2013-07-13 05:01:00,
2013-07-12 23:11:00,50.0,45.0,29.85,NNE,21,0.0,-999.0,84,-99.99,,,-99.99,,2013-07-13 05:11:00,
2013-07-12 23:22:00,50.0,45.0,29.85,NNE,21,0.0,-999.0,84,-99.99,,,-99.99,,2013-07-13 05:22:00,
2013-07-12 23:32:00,50.0,45.0,29.86,NNE,21,0.0,-999.0,84,-99.99,,,-99.99,,2013-07-13 05:32:00,
2013-07-12 23:42:00,50.0,45.0,29.86,NNE,21,0.0,-999.0,84,-99.99,,,-99.99,,2013-07-13 05:42:00,
2013-07-12 23:52:00,50.0,45.0,29.86,NNE,21,0.0,-999.0,84,-99.99,,,-99.99,,2013-07-13 05:52:00,